Weather History for Windom, MN

Change the Weather History Date:

Monday, December 10, 2012

  Actual Average Record
Temperature  
Mean Temperature 8 °F -  
Max Temperature 19 °F 27 °F 55 °F (1990)
Min Temperature -2 °F 10 °F -20 °F (1958)
Degree Days  
Heating Degree Days 56    
Moisture  
Dew Point 2 °F    
Average Humidity 78    
Maximum Humidity 92    
Minimum Humidity 61    
Precipitation  
Precipitation 0.00 in - - ()
Sea Level Pressure  
Sea Level Pressure 29.89 in    
Wind  
Wind Speed 0 mph (North)    
Max Wind Speed 0 mph    
Max Gust Speed -    
Visibility 9 miles    
Events Snow    
Averages and records for this station are not official NWS values.
T = Trace of Precipitation, MM = Missing Value Source: NWS Daily Summary

Daily Weather History Graph

Daily Weather History Graph

Search for Another Location

Airport:

Trip Planner

Search our weather history database for the weather conditions in past years. The results will help you decide how hot, cold, wet, or windy it might be!

Date:

Astronomy

Dec. 10, 2012 Rise Set
Actual Time 7:44 AM CST 4:42 PM CST
Civil Twilight 7:11 AM CST 5:15 PM CST
Nautical Twilight 6:35 AM CST 5:51 PM CST
Astronomical Twilight 6:00 AM CST 6:26 PM CST
Moon 4:24 AM CST (12/10) 2:35 PM CST (12/10)
Length of Visible Light 10h 03m
Length of Day
8h 58m
Waning Crescent, 10% of the Moon is Illuminated
Dec 10
Waning Crescent
Dec 13
New
Dec 19
First Quarter
Dec 28
Full
Jan 4
Last Quarter

Hourly Weather History & Observations

Time (CST) Temp. Dew Point Humidity Pressure Visibility Wind Dir Wind Speed Gust Speed Precip Events Conditions
12:13 AM 5.0 °F 1.4 °F 85% 29.98 in 2.5 mi Calm Calm - N/A   Overcast
12:52 AM 3.2 °F 1.4 °F 92% 29.98 in 2.0 mi Calm Calm - N/A   Overcast
1:13 AM 3.2 °F 1.4 °F 92% 29.98 in 3.0 mi Calm Calm - N/A   Overcast
1:33 AM 3.2 °F 1.4 °F 92% 29.99 in 7.0 mi Calm Calm - N/A   Overcast
1:52 AM 3.2 °F -0.4 °F 85% 29.99 in 5.0 mi Calm Calm - N/A   Overcast
2:13 AM 3.2 °F -0.4 °F 85% 29.98 in 7.0 mi Calm Calm - N/A   Overcast
2:52 AM 3.2 °F -0.4 °F 85% 29.97 in 7.0 mi Calm Calm - N/A   Overcast
3:13 AM 3.2 °F -0.4 °F 85% 29.97 in 10.0 mi Calm Calm - N/A   Overcast
3:33 AM 1.4 °F -2.2 °F 85% 29.97 in 7.0 mi Calm Calm - N/A   Overcast
3:52 AM 1.4 °F -2.2 °F 85% 29.97 in 10.0 mi Calm Calm - N/A   Overcast
4:12 AM -0.4 °F -5.8 °F 78% 29.96 in 7.0 mi Calm Calm - N/A   Scattered Clouds
4:33 AM -0.4 °F -5.8 °F 78% 29.96 in 10.0 mi Calm Calm - N/A   Clear
4:52 AM -0.4 °F -5.8 °F 78% 29.95 in 10.0 mi Calm Calm - N/A   Clear
5:12 AM -0.4 °F -5.8 °F 78% 29.96 in 10.0 mi Calm Calm - N/A   Clear
5:33 AM -0.4 °F -5.8 °F 78% 29.96 in 10.0 mi Calm Calm - N/A   Clear
5:52 AM -0.4 °F -7.6 °F 72% 29.96 in 10.0 mi Calm Calm - N/A   Clear
6:13 AM -2.2 °F -7.6 °F 78% 29.95 in 10.0 mi Calm Calm - N/A   Clear
6:32 AM -2.2 °F -7.6 °F 78% 29.95 in 10.0 mi Calm Calm - N/A   Clear
6:52 AM -2.2 °F -7.6 °F 78% 29.95 in 10.0 mi Calm Calm - N/A   Clear
7:13 AM -2.2 °F -7.6 °F 78% 29.96 in 10.0 mi Calm Calm - N/A   Clear
7:32 AM -2.2 °F -7.6 °F 78% 29.95 in 7.0 mi Calm Calm - N/A   Clear
8:13 AM -2.2 °F -7.6 °F 78% 29.95 in 10.0 mi Calm Calm - N/A   Clear
8:32 AM -2.2 °F -7.6 °F 78% 29.95 in 10.0 mi Calm Calm - N/A   Clear
8:52 AM -0.4 °F -7.6 °F 72% 29.96 in 10.0 mi Calm Calm - N/A   Clear
9:13 AM -0.4 °F -5.8 °F 78% 29.96 in 10.0 mi North - - N/A   Clear
9:32 AM -0.4 °F -5.8 °F 78% 29.95 in 10.0 mi North - - N/A   Clear
9:52 AM 1.4 °F -5.8 °F 72% 29.95 in 10.0 mi North - - N/A   Clear
10:12 AM 1.4 °F -5.8 °F 72% 29.94 in 10.0 mi North - - N/A   Clear
10:32 AM 3.2 °F -5.8 °F 66% 29.95 in 10.0 mi North - - N/A   Clear
10:53 AM 3.2 °F -5.8 °F 66% 29.95 in 10.0 mi North - - N/A   Clear
11:12 AM 3.2 °F -5.8 °F 66% 29.94 in 10.0 mi North - - N/A   Clear
11:53 AM 6.8 °F -4.0 °F 61% 29.93 in 10.0 mi North - - N/A   Clear
12:12 PM 6.8 °F -2.2 °F 67% 29.92 in 10.0 mi North - - N/A   Clear
12:33 PM 8.6 °F -0.4 °F 67% 29.91 in 10.0 mi North - - N/A   Clear
12:52 PM 8.6 °F -0.4 °F 67% 29.90 in 10.0 mi North - - N/A   Clear
1:13 PM 8.6 °F -0.4 °F 67% 29.89 in 10.0 mi North - - N/A   Clear
1:32 PM 8.6 °F 1.4 °F 73% 29.89 in 10.0 mi North - - N/A   Clear
1:52 PM 8.6 °F 1.4 °F 73% 29.87 in 10.0 mi North - - N/A   Clear
2:13 PM 10.4 °F 1.4 °F 67% 29.87 in 10.0 mi North - - N/A   Clear
2:32 PM 10.4 °F 3.2 °F 73% 29.86 in 10.0 mi North - - N/A   Clear
2:53 PM 10.4 °F 3.2 °F 73% 29.85 in 10.0 mi North - - N/A   Clear
3:12 PM 12.2 °F 6.8 °F 79% 29.85 in 10.0 mi North - - N/A   Clear
3:52 PM 12.2 °F 6.8 °F 79% 29.84 in 10.0 mi North - - N/A   Clear
4:12 PM 12.2 °F 6.8 °F 79% 29.84 in 10.0 mi North - - N/A   Clear
4:33 PM 12.2 °F 6.8 °F 79% 29.83 in 10.0 mi North - - N/A   Clear
4:52 PM 12.2 °F 6.8 °F 79% 29.83 in 10.0 mi North - - N/A   Clear
5:12 PM 12.2 °F 6.8 °F 79% 29.83 in 10.0 mi North - - N/A   Clear
5:33 PM 10.4 °F 6.8 °F 85% 29.83 in 10.0 mi North - - N/A   Clear
5:52 PM 10.4 °F 6.8 °F 85% 29.83 in 10.0 mi North - - N/A   Clear
6:12 PM 10.4 °F 6.8 °F 85% 29.83 in 10.0 mi North - - N/A   Clear
6:32 PM 10.4 °F 6.8 °F 85% 29.83 in 10.0 mi North - - N/A   Clear
6:52 PM 12.2 °F 6.8 °F 79% 29.83 in 10.0 mi North - - N/A   Scattered Clouds
7:13 PM 10.4 °F 6.8 °F 85% 29.82 in 10.0 mi North - - N/A   Scattered Clouds
7:32 PM 12.2 °F 8.6 °F 85% 29.81 in 10.0 mi North - - N/A   Scattered Clouds
7:52 PM 12.2 °F 8.6 °F 85% 29.80 in 10.0 mi North - - N/A   Mostly Cloudy
8:12 PM 12.2 °F 8.6 °F 85% 29.80 in 10.0 mi North - - N/A   Mostly Cloudy
8:32 PM 14.0 °F 8.6 °F 79% 29.80 in 10.0 mi North - - N/A   Overcast
8:53 PM 15.8 °F 8.6 °F 73% 29.79 in 10.0 mi North - - N/A   Overcast
9:12 PM 15.8 °F 10.4 °F 79% 29.79 in 10.0 mi North - - N/A   Overcast
9:32 PM 17.6 °F 10.4 °F 73% 29.78 in 10.0 mi North - - N/A   Overcast
9:53 PM 19.4 °F 10.4 °F 68% 29.78 in 10.0 mi North - - N/A   Overcast
10:12 PM 19.4 °F 12.2 °F 74% 29.78 in 10.0 mi North - - N/A Snow Light Snow
10:33 PM 19.4 °F 14.0 °F 80% 29.77 in 5.0 mi North - - N/A Snow Light Snow
10:53 PM 19.4 °F 15.8 °F 86% 29.77 in 4.0 mi North - - N/A Snow Light Snow
11:12 PM 19.4 °F 15.8 °F 86% 29.77 in 7.0 mi North - - N/A   Overcast
11:33 PM 19.4 °F 15.8 °F 86% 29.77 in 7.0 mi North - - N/A Snow Light Snow
11:52 PM 19.4 °F 15.8 °F 86% 29.77 in 10.0 mi North - - N/A Snow Light Snow